When you browse on this site, cookies collect data to enhance your experience and personalize the content and advertising you see.
Visit our Privacy Policy to learn more. By continuing to use the site, you agree to this use of cookies and data.
  • In Czech Republic
  • List of Countries
  • For 7 days
  • Water Temperature
  • Weather Map
  • Weather Widgets
  • user-avatar
    Login

    Hourly Weather Leipzig

    Today, 21 October, Monday

    Time Temperature Precipitation Wind Pressure Humidity
    00:00 +14°C° 0 mm 2 mps 748 mmHg 80%
    01:00 +14°C° 0 mm 2 mps 748 mmHg 81%
    02:00 +14°C° 0 mm 2 mps 748 mmHg 82%
    03:00 +14°C° 0 mm 2 mps 748 mmHg 82%
    04:00 +14°C° 0 mm 2 mps 748 mmHg 83%
    05:00 +14°C° 0 mm 2 mps 749 mmHg 84%
    06:00 +14°C° 0 mm 2 mps 749 mmHg 85%
    07:00 +14°C° 0 mm 2 mps 750 mmHg 86%
    08:00 +15°C° 0 mm 2 mps 751 mmHg 81%
    09:00 +17°C° 0 mm 2 mps 751 mmHg 76%
    10:00 +18°C° 0 mm 3 mps 751 mmHg 71%
    11:00 +19°C° 0 mm 3 mps 752 mmHg 69%
    12:00 +20°C° 0 mm 2 mps 753 mmHg 67%
    13:00 +21°C° 0 mm 2 mps 753 mmHg 64%
    14:00 +20°C° 0 mm 2 mps 753 mmHg 67%
    15:00 +20°C° 0 mm 2 mps 753 mmHg 69%
    16:00 +20°C° 0 mm 1 mps 753 mmHg 72%
    17:00 +19°C° 0 mm 1 mps 754 mmHg 74%
    18:00 +18°C° 0 mm 1 mps 754 mmHg 75%
    19:00 +16°C° 0 mm 2 mps 755 mmHg 77%
    20:00 +16°C° 0 mm 2 mps 755 mmHg 76%
    21:00 +15°C° 0 mm 2 mps 755 mmHg 75%
    22:00 +15°C° 0 mm 2 mps 755 mmHg 75%
    23:00 +15°C° 0 mm 2 mps 755 mmHg 74%

    Tomorrow, 22 October, Tuesday

    Time Temperature Precipitation Wind Pressure Humidity
    00:00 +15°C° 0 mm 2 mps 756 mmHg 74%
    01:00 +15°C° 0 mm 2 mps 756 mmHg 74%
    02:00 +14°C° 0 mm 2 mps 756 mmHg 76%
    03:00 +14°C° 0 mm 2 mps 756 mmHg 79%
    04:00 +13°C° 0 mm 2 mps 756 mmHg 81%
    05:00 +12°C° 0 mm 2 mps 756 mmHg 82%
    06:00 +12°C° 0 mm 2 mps 756 mmHg 83%
    07:00 +12°C° 0 mm 2 mps 757 mmHg 84%
    08:00 +13°C° 0 mm 2 mps 757 mmHg 78%
    09:00 +14°C° 0 mm 2 mps 757 mmHg 72%
    10:00 +16°C° 0 mm 3 mps 757 mmHg 66%
    11:00 +17°C° 0 mm 3 mps 757 mmHg 63%
    12:00 +18°C° 0 mm 3 mps 757 mmHg 60%
    13:00 +19°C° 0 mm 3 mps 757 mmHg 56%
    14:00 +18°C° 0 mm 2 mps 757 mmHg 59%
    15:00 +18°C° 0 mm 2 mps 757 mmHg 62%
    16:00 +19°C° 0 mm 1 mps 757 mmHg 64%
    17:00 +16°C° 0 mm 1 mps 757 mmHg 69%
    18:00 +15°C° 0 mm 1 mps 757 mmHg 73%
    19:00 +14°C° 0 mm 1 mps 757 mmHg 77%
    20:00 +13°C° 0 mm 1 mps 757 mmHg 80%
    21:00 +13°C° 0 mm 1 mps 757 mmHg 83%
    22:00 +12°C° 0 mm 1 mps 757 mmHg 86%
    23:00 +12°C° 0 mm 1 mps 757 mmHg 88%

    Day after tomorrow, 23 October, Wednesday

    Time Temperature Precipitation Wind Pressure Humidity
    00:00 +11°C° 0 mm 1 mps 757 mmHg 89%
    01:00 +11°C° 0 mm 1 mps 756 mmHg 90%
    02:00 +11°C° 0 mm 1 mps 756 mmHg 91%
    03:00 +10°C° 0 mm 2 mps 756 mmHg 92%
    04:00 +9°C° 0 mm 2 mps 756 mmHg 93%
    05:00 +9°C° 0 mm 2 mps 756 mmHg 94%
    06:00 +9°C° 0 mm 2 mps 755 mmHg 94%
    07:00 +9°C° 0 mm 2 mps 755 mmHg 95%
    08:00 +12°C° 0 mm 2 mps 755 mmHg 88%
    09:00 +13°C° 0 mm 2 mps 755 mmHg 82%
    10:00 +15°C° 0 mm 2 mps 754 mmHg 75%
    11:00 +16°C° 0 mm 3 mps 754 mmHg 72%
    12:00 +18°C° 0 mm 3 mps 753 mmHg 68%
    13:00 +19°C° 0 mm 3 mps 753 mmHg 65%
    14:00 +19°C° 0 mm 3 mps 753 mmHg 68%
    15:00 +19°C° 0 mm 3 mps 752 mmHg 70%
    16:00 +18°C° 0 mm 3 mps 751 mmHg 73%
    17:00 +17°C° 0 mm 3 mps 751 mmHg 78%
    18:00 +16°C° 0 mm 3 mps 751 mmHg 84%
    19:00 +13°C° 0 mm 3 mps 751 mmHg 90%
    20:00 +13°C° 0 mm 3 mps 751 mmHg 91%
    21:00 +13°C° 0 mm 2 mps 750 mmHg 91%
    22:00 +13°C° 0 mm 2 mps 750 mmHg 92%
    23:00 +13°C° 0 mm 2 mps 750 mmHg 93%

    24 October, Thursday

    Time Temperature Precipitation Wind Pressure Humidity
    00:00 +13°C° 0 mm 2 mps 749 mmHg 93%
    01:00 +12°C° 0 mm 2 mps 749 mmHg 93%
    02:00 +12°C° 0 mm 2 mps 748 mmHg 93%
    03:00 +12°C° 0 mm 1 mps 748 mmHg 93%
    04:00 +12°C° 0 mm 1 mps 748 mmHg 93%
    05:00 +12°C° 0 mm 1 mps 748 mmHg 92%
    06:00 +11°C° 0 mm 1 mps 747 mmHg 92%
    07:00 +10°C° 0 mm 2 mps 747 mmHg 92%
    08:00 +13°C° 0 mm 2 mps 748 mmHg 85%
    09:00 +15°C° 0 mm 2 mps 748 mmHg 78%
    10:00 +17°C° 0 mm 2 mps 748 mmHg 71%
    11:00 +18°C° 0 mm 3 mps 748 mmHg 67%
    12:00 +20°C° 0 mm 3 mps 748 mmHg 63%
    13:00 +21°C° 0 mm 3 mps 748 mmHg 59%
    14:00 +20°C° 0 mm 3 mps 748 mmHg 63%
    15:00 +20°C° 0 mm 2 mps 748 mmHg 67%
    16:00 +19°C° 0 mm 2 mps 748 mmHg 71%
    17:00 +17°C° 0 mm 2 mps 748 mmHg 77%
    18:00 +16°C° 0 mm 3 mps 749 mmHg 83%
    19:00 +13°C° 0 mm 3 mps 749 mmHg 89%
    20:00 +13°C° 0 mm 3 mps 749 mmHg 90%
    21:00 +13°C° 0 mm 3 mps 750 mmHg 91%
    22:00 +12°C° 0 mm 3 mps 750 mmHg 92%
    23:00 +12°C° 0 mm 3 mps 751 mmHg 92%

    25 October, Friday

    Time Temperature Precipitation Wind Pressure Humidity
    00:00 +12°C° 0 mm 3 mps 751 mmHg 92%
    01:00 +12°C° 0 mm 3 mps 752 mmHg 92%
    02:00 +13°C° 0 mm 2 mps 752 mmHg 91%
    03:00 +13°C° 0 mm 2 mps 752 mmHg 91%
    04:00 +12°C° 0 mm 2 mps 753 mmHg 91%
    05:00 +12°C° 0 mm 2 mps 753 mmHg 90%
    06:00 +12°C° 0 mm 2 mps 753 mmHg 89%
    07:00 +12°C° 0 mm 2 mps 754 mmHg 89%
    08:00 +14°C° 0 mm 2 mps 754 mmHg 82%
    09:00 +14°C° 0 mm 3 mps 755 mmHg 75%
    10:00 +16°C° 0 mm 3 mps 755 mmHg 68%
    11:00 +17°C° 0 mm 3 mps 756 mmHg 63%
    12:00 +19°C° 0 mm 3 mps 756 mmHg 58%
    13:00 +20°C° 0 mm 3 mps 756 mmHg 53%
    14:00 +19°C° 0 mm 2 mps 756 mmHg 55%
    15:00 +19°C° 0 mm 2 mps 756 mmHg 58%
    16:00 +19°C° 0 mm 1 mps 756 mmHg 61%
    17:00 +18°C° 0 mm 1 mps 756 mmHg 64%
    18:00 +16°C° 0 mm 1 mps 756 mmHg 67%
    19:00 +14°C° 0 mm 1 mps 756 mmHg 70%
    20:00 +14°C° 0 mm 1 mps 756 mmHg 71%
    21:00 +14°C° 0 mm 1 mps 756 mmHg 72%
    22:00 +13°C° 0 mm 1 mps 756 mmHg 73%
    23:00 +13°C° 0 mm 1 mps 756 mmHg 74%

    26 October, Saturday

    Time Temperature Precipitation Wind Pressure Humidity
    00:00 +13°C° 0 mm 2 mps 755 mmHg 75%
    01:00 +13°C° 0 mm 2 mps 755 mmHg 76%
    02:00 +13°C° 0 mm 2 mps 755 mmHg 77%
    03:00 +12°C° 0 mm 2 mps 755 mmHg 79%
    04:00 +12°C° 0 mm 2 mps 754 mmHg 80%
    05:00 +12°C° 0 mm 2 mps 754 mmHg 81%
    06:00 +12°C° 0 mm 2 mps 754 mmHg 83%
    07:00 +11°C° 0 mm 3 mps 753 mmHg 84%
    08:00 +12°C° 0 mm 3 mps 753 mmHg 79%
    09:00 +14°C° 0 mm 3 mps 754 mmHg 73%
    10:00 +17°C° 0 mm 4 mps 754 mmHg 68%
    11:00 +18°C° 0 mm 4 mps 753 mmHg 65%
    12:00 +19°C° 0 mm 4 mps 753 mmHg 62%
    13:00 +20°C° 0 mm 4 mps 753 mmHg 58%
    14:00 +20°C° 0 mm 4 mps 752 mmHg 61%
    15:00 +19°C° 0 mm 3 mps 752 mmHg 64%
    16:00 +19°C° 0 mm 3 mps 752 mmHg 67%
    17:00 +18°C° 0 mm 3 mps 752 mmHg 72%
    18:00 +16°C° 0 mm 3 mps 752 mmHg 77%
    19:00 +14°C° 0 mm 4 mps 752 mmHg 83%
    20:00 +13°C° 0 mm 4 mps 753 mmHg 84%
    21:00 +13°C° 0 mm 4 mps 753 mmHg 86%
    22:00 +13°C° 0 mm 4 mps 753 mmHg 88%
    23:00 +12°C° 0 mm 4 mps 753 mmHg 88%

    27 October, Sunday

    Time Temperature Precipitation Wind Pressure Humidity
    00:00 +12°C° 0 mm 4 mps 753 mmHg 89%
    01:00 +12°C° 0 mm 4 mps 754 mmHg 89%
    02:00 +12°C° 0 mm 4 mps 754 mmHg 89%
    03:00 +11°C° 0 mm 4 mps 754 mmHg 89%
    04:00 +11°C° 0 mm 3 mps 755 mmHg 89%
    05:00 +11°C° 0 mm 4 mps 755 mmHg 87%
    06:00 +11°C° 0 mm 4 mps 756 mmHg 85%
    07:00 +11°C° 0 mm 4 mps 756 mmHg 84%
    08:00 +11°C° 0 mm 4 mps 757 mmHg 79%
    09:00 +10°C° 0 mm 3 mps 757 mmHg 75%
    10:00 +10°C° 0 mm 3 mps 758 mmHg 71%
    11:00 +10°C° 0 mm 2 mps 758 mmHg 68%
    12:00 +10°C° 0 mm 2 mps 758 mmHg 65%
    13:00 +10°C° 0 mm 2 mps 758 mmHg 63%
    14:00 +11°C° 0 mm 1 mps 758 mmHg 62%
    15:00 +11°C° 0 mm 1 mps 758 mmHg 61%
    16:00 +11°C° 0 mm 1 mps 758 mmHg 60%
    17:00 +11°C° 0 mm 1 mps 758 mmHg 62%
    18:00 +10°C° 0 mm 1 mps 758 mmHg 65%
    19:00 +8°C° 0 mm 0 mps 758 mmHg 67%
    20:00 +8°C° 0 mm 0 mps 759 mmHg 69%
    21:00 +9°C° 0 mm 1 mps 759 mmHg 70%
    22:00 +9°C° 0 mm 1 mps 759 mmHg 72%
    23:00 +9°C° 0 mm 1 mps 759 mmHg 74%
    Show more